Tracking 18843 objects as of 20-November-2017
HD Live streaming from Space Station
objects crossing your sky now

SL-16 DEB

Track SL-16 DEB now!
10-day predictions


NORAD ID: 23410
Int'l Code: 1994-077G
Perigee: 848.6 km
Apogee: 1,178.5 km
Inclination: 71.0 °
Period: 105.3 minutes
Semi major axis: 7384 km
RCS: 0.0892 m2 (small)
Launch date: November 24, 1994
Source: Commonwealth of Independent States (former USSR) (CIS)
Launch site: TYURATAM MISSILE AND SPACE COMPLEX (TTMTR)

Note: This is SATELLITE DEBRIS
aabbcc
Your satellite tracking list
Your tracking list is empty




NASA's NSSDC Master Catalog

Two Line Element Set (TLE):
1 23410U 94077G   17323.92189890 +.00000003 +00000-0 +44985-4 0  9996
2 23410 070.9786 139.9908 0223390 207.2171 263.3869 13.68106665147479
Source of the keplerian elements: AFSPC